Theta_e
313 313 312 311 311 313 314 312 309 307 307 306 306 306 306 306 306 306 305 305 304 305 307 310 314 318 323 328 329 331 334 334 336 337 337 337 337 336 334 330 327 328 329
313 313 312 312 311 312 313 313 310 307 306 306 307 306 305 305 305 304 304 304 304 304 304 304 304 306 310 314 318 324 326 330 332 334 335 337 337 337 336 335 332 330 330
313 313 313 312 311 311 312 313 311 307 306 305 306 306 306 305 304 304 304 304 303 303 303 303 303 302 302 302 303 306 310 316 323 329 333 332 334 334 336 336 335 333 330
312 312 312 312 312 311 312 313 312 308 306 306 306 307 306 306 305 304 304 303 302 302 302 302 302 302 302 302 302 303 303 303 303 306 322 331 331 330 334 336 336 335 333
311 312 312 311 311 311 311 312 312 310 307 306 305 305 305 306 305 305 305 304 303 303 302 301 302 301 302 302 302 303 303 303 303 303 303 303 319 330 331 331 334 336 335
311 311 311 311 311 311 311 311 312 311 307 306 305 305 305 305 305 304 305 305 305 304 304 303 302 301 302 302 302 302 302 302 302 303 303 303 303 303 319 332 328 333 334
313 311 311 311 312 311 311 311 311 311 309 305 304 304 306 306 306 305 304 304 304 304 304 303 302 302 302 302 301 301 301 301 301 301 302 303 303 303 302 309 326 329 333
314 312 311 312 313 312 310 311 311 311 308 306 305 306 305 307 307 306 305 305 304 304 304 303 304 304 303 302 302 302 301 301 301 300 300 301 303 304 303 302 305 327 328
315 314 313 313 314 312 310 310 311 311 308 306 304 304 307 306 308 307 306 305 304 304 303 303 303 303 303 303 303 302 302 302 301 300 300 300 300 302 304 304 303 304 322
315 315 314 315 314 312 310 310 310 310 307 305 305 303 303 306 306 305 305 305 305 304 304 303 303 303 302 302 303 303 302 302 303 301 300 299 299 299 301 304 304 303 302
315 315 315 315 314 312 311 310 310 310 309 304 305 304 303 302 302 302 303 304 304 304 303 303 303 301 302 302 303 302 302 303 303 302 301 303 303 306 306 308 309 306 304
316 315 315 315 314 313 311 310 310 310 309 306 303 304 304 304 303 303 304 304 303 302 301 301 301 302 302 302 302 303 303 303 303 302 301 300 303 305 307 308 309 311 311
316 314 315 314 314 312 311 309 309 309 308 306 303 304 303 303 302 303 303 302 301 300 300 300 300 301 302 302 303 303 303 303 303 302 304 305 306 306 306 307 310 312 310
316 315 315 315 314 311 310 309 309 309 307 305 303 302 302 302 302 301 300 300 300 300 300 300 299 301 302 302 302 303 303 303 303 303 304 304 305 305 305 306 307 309 310
317 315 314 314 313 311 309 309 308 308 307 305 303 302 301 301 301 301 300 300 301 301 300 299 300 300 301 302 303 303 303 302 303 303 302 304 304 304 305 307 307 308 309
319 315 313 313 312 310 309 308 308 308 307 304 302 301 301 300 300 300 300 300 300 300 300 299 300 301 302 303 302 302 302 302 302 302 303 303 303 304 305 306 307 307 308
317 315 312 312 312 310 309 308 308 308 306 303 302 301 301 301 301 301 300 299 299 300 300 301 302 303 303 302 302 302 301 301 302 301 302 303 303 303 304 305 306 306 307
314 315 312 311 312 310 308 308 308 308 306 304 302 301 301 301 300 299 299 299 299 301 302 303 303 302 302 301 302 301 300 301 302 301 303 303 303 304 305 305 306 306 306
314 315 313 311 310 309 308 307 308 308 305 303 302 301 301 300 300 300 300 300 301 302 302 302 302 302 301 301 300 301 301 301 302 303 304 304 304 305 305 305 306 306 306
313 314 313 310 310 309 308 307 307 306 305 303 302 301 301 301 301 300 299 300 301 302 302 301 301 300 300 300 300 300 301 302 302 302 303 304 305 305 306 306 307 306 307
310 313 312 310 309 308 307 306 306 306 304 302 302 301 301 300 300 299 300 300 300 300 300 300 300 300 300 300 301 301 302 302 302 303 304 305 304 305 305 306 307 307 307
309 311 311 309 309 307 306 306 305 305 303 302 301 301 300 300 300 300 301 302 302 302 301 301 300 301 301 301 302 302 303 302 303 304 304 304 304 305 306 307 308 307 307
308 309 310 308 308 306 305 305 304 304 303 301 301 300 300 300 301 301 301 300 301 301 301 302 302 301 301 302 302 301 303 305 305 304 305 304 304 305 305 307 307 307 307
307 308 309 308 307 306 305 304 303 303 302 300 299 300 300 301 301 301 300 299 299 298 300 302 301 301 301 301 301 303 303 303 304 306 307 305 306 305 307 308 307 306 306
306 307 309 307 306 305 304 304 303 302 300 299 300 301 301 301 300 300 300 299 298 299 301 299 297 297 300 302 303 303 304 303 304 308 311 309 308 307 308 308 308 307 306
306 307 308 307 305 304 304 303 302 301 299 299 300 300 301 300 300 300 299 297 298 299 298 296 298 299 302 305 306 306 307 305 305 308 309 309 309 309 310 309 308 306 305
Wind_Speed
16 13 10 7 6 6 6 6 6 4 3 3 4 4 5 5 8 11 9 8 9 10 11 12 12 13 14 14 13 13 11 9 7 10 12 10 11 10 9 10 10 9 10
19 17 14 11 9 8 7 7 6 6 6 5 4 5 6 7 7 9 10 9 9 10 11 11 11 12 14 15 16 17 16 15 15 12 11 13 14 15 14 12 11 11 12
22 20 18 15 12 9 9 8 8 8 8 7 7 6 6 6 7 9 10 10 9 9 10 11 11 11 12 12 13 14 15 17 17 17 17 14 15 17 17 17 16 13 13
26 25 21 19 16 13 11 11 11 10 9 9 7 7 10 9 8 10 11 10 10 11 10 10 10 11 12 13 13 13 13 14 15 17 20 20 20 17 18 19 19 18 17
31 29 25 22 21 18 15 13 13 12 11 11 9 10 10 11 12 10 13 11 12 11 11 13 11 12 13 14 14 15 15 16 16 16 16 18 23 24 23 22 22 20 22
35 32 30 27 25 22 19 17 15 13 13 13 12 11 11 13 13 12 14 11 12 17 14 12 11 12 14 14 13 14 15 16 17 17 17 17 19 21 25 23 24 24 22
37 36 34 31 30 26 22 19 17 17 15 14 14 10 9 10 12 12 11 10 8 13 17 15 14 14 13 14 16 18 14 15 17 18 18 18 18 18 21 26 28 26 28
40 39 38 36 33 30 26 23 20 19 17 16 11 9 5 10 13 10 11 10 11 11 14 12 12 16 16 17 16 17 17 18 18 18 19 19 20 20 19 21 26 29 30
44 40 40 38 36 33 29 26 23 22 20 19 16 11 6 6 7 9 12 12 13 12 10 13 17 15 15 16 18 18 19 21 22 19 21 21 20 21 22 22 22 27 34
47 44 41 39 38 35 31 29 25 24 22 22 18 17 17 11 8 6 9 10 11 10 16 16 13 15 18 19 18 20 20 21 22 23 23 22 23 23 22 23 24 25 26
49 48 44 41 39 36 33 31 28 26 24 23 22 17 16 17 15 15 12 16 13 13 13 16 20 21 17 18 20 23 23 20 22 25 24 20 21 21 22 21 22 25 27
47 48 46 44 42 38 36 33 30 27 25 23 22 20 18 16 13 13 13 14 18 19 18 17 15 17 20 20 19 20 22 23 24 25 25 25 25 24 21 21 22 22 24
47 49 49 47 45 41 37 34 32 29 26 24 23 23 21 19 17 18 19 18 18 21 18 18 15 16 16 19 18 18 20 21 25 27 23 22 22 22 23 22 21 21 22
47 47 49 48 48 43 39 36 33 31 28 26 24 24 21 18 17 16 16 16 19 22 22 18 19 15 19 21 23 24 26 27 27 26 26 26 25 25 26 26 25 22 23
44 47 48 47 49 46 42 39 36 33 30 28 26 24 23 21 19 18 16 15 16 20 28 25 21 21 22 23 23 25 27 27 28 28 28 27 26 27 26 27 26 24 24
40 47 47 45 47 47 43 40 37 34 31 29 26 24 23 21 19 17 16 17 19 21 26 27 27 26 24 26 27 28 30 32 31 30 29 29 31 28 28 29 27 27 26
43 44 43 45 45 47 46 41 38 34 31 29 26 24 21 18 18 18 19 20 21 21 25 28 26 25 28 29 28 30 33 31 33 32 27 27 28 33 33 31 30 29 27
38 43 44 43 44 47 47 44 39 35 33 30 26 25 23 22 21 19 19 19 19 18 21 27 28 32 28 30 30 34 29 30 31 30 28 30 32 35 33 31 32 29 26
36 41 44 45 44 47 48 44 39 34 32 29 27 25 22 21 19 17 18 17 18 20 24 27 30 29 32 30 33 29 33 30 26 26 29 32 38 34 33 32 32 32 28
32 37 42 43 42 45 48 45 39 33 30 27 26 24 22 20 18 19 18 19 20 22 25 27 31 31 31 30 30 33 36 32 36 38 40 38 36 33 32 32 29 28 32
27 36 40 41 40 45 47 45 40 34 31 27 24 21 20 21 20 20 19 22 24 25 25 26 27 30 29 31 37 38 38 42 47 43 47 43 36 30 27 27 27 27 31
32 29 38 41 39 43 46 44 38 34 30 28 25 25 22 17 15 16 17 15 17 20 22 24 26 30 34 37 36 35 39 49 52 44 38 43 38 32 25 23 22 25 30
29 27 36 38 39 42 42 41 38 33 31 28 26 21 18 17 13 14 17 18 17 18 17 21 27 32 34 35 39 47 46 42 46 51 43 44 41 37 31 26 21 24 29
27 27 35 38 39 40 39 39 38 33 29 27 24 20 16 15 17 18 20 20 20 17 15 19 26 30 34 39 38 42 46 45 41 39 30 42 33 31 24 25 21 24 27
24 28 33 38 39 39 38 39 38 32 28 24 21 18 18 18 17 15 17 17 16 16 18 23 27 30 28 32 37 36 37 36 37 35 25 23 20 19 21 22 20 24 25
28 24 32 37 38 39 37 37 36 33 28 24 19 17 16 14 12 11 13 14 16 17 23 28 26 28 30 35 34 31 33 35 33 28 15 12 16 16 16 22 27 30 25
Wind_Direction
232 240 253 268 292 313 308 302 294 287 264 251 241 234 251 247 234 275 287 286 276 274 273 270 266 265 264 266 269 267 262 266 272 256 260 267 284 299 310 315 311 297 306
231 235 241 252 267 280 291 285 282 273 270 269 262 253 253 256 261 267 282 284 278 277 276 277 276 271 269 268 267 267 267 265 260 261 255 254 261 276 289 295 304 300 299
229 234 237 244 253 262 268 273 270 265 265 260 269 282 270 269 274 277 280 289 282 277 278 278 278 278 279 277 274 272 271 268 262 257 255 258 263 263 266 273 282 291 293
229 234 235 242 248 254 260 265 266 259 258 259 255 274 286 286 281 276 284 281 288 289 281 277 281 280 280 281 282 280 277 272 268 262 257 255 250 256 261 260 262 274 286
230 233 236 239 244 250 253 258 262 259 253 251 247 239 265 274 287 280 284 285 281 272 281 284 281 280 280 283 283 284 285 285 281 276 270 262 256 255 249 255 262 259 267
233 233 236 237 243 245 247 250 254 251 248 247 250 245 256 261 275 266 258 278 286 296 296 294 284 285 284 283 278 282 287 289 288 286 282 276 267 260 256 251 262 259 256
238 235 236 237 241 244 246 247 245 248 246 243 249 254 252 264 280 278 267 253 252 286 295 307 311 310 302 300 303 302 294 283 285 287 286 284 279 273 263 252 245 254 255
242 235 235 237 241 244 239 241 241 243 243 241 236 233 251 233 252 261 265 258 268 253 276 298 305 297 296 300 301 298 298 289 287 286 283 282 280 277 268 261 251 244 254
245 239 235 236 239 241 239 242 241 241 238 237 236 221 203 220 204 241 256 250 257 279 300 289 286 295 303 301 297 291 292 298 292 285 282 279 276 272 270 263 259 251 243
240 243 237 236 237 239 237 240 239 238 236 237 234 228 223 218 215 210 225 246 256 276 281 292 300 287 288 292 296 296 294 289 291 293 295 288 283 279 273 268 262 258 252
236 242 239 235 235 236 236 237 237 236 233 229 238 236 227 230 234 237 239 227 251 262 273 273 279 289 296 295 293 297 299 297 292 295 294 291 290 289 287 283 274 261 254
234 236 240 236 235 235 233 235 235 236 235 228 225 234 237 230 233 239 250 262 267 275 278 283 287 280 287 292 297 302 307 305 303 303 303 295 291 289 287 282 279 271 263
234 233 241 237 234 233 232 230 232 233 233 231 224 229 232 237 238 237 249 263 278 288 291 295 294 301 300 301 299 298 296 293 296 299 294 294 292 291 288 284 279 273 264
240 242 240 243 236 231 229 227 229 231 230 232 228 228 234 239 242 247 257 272 287 288 296 297 299 286 283 282 285 280 278 282 286 286 284 283 282 283 282 281 278 271 268
244 240 237 240 235 230 227 226 227 228 229 230 230 231 233 237 241 247 254 263 273 284 297 301 302 306 298 297 297 294 295 292 290 288 287 284 281 281 276 274 272 270 265
248 235 228 232 233 229 227 225 226 227 228 229 229 230 233 239 242 247 257 267 269 272 275 290 299 303 304 298 296 293 289 289 288 286 284 284 283 279 284 276 269 271 265
239 234 223 226 230 229 226 222 224 225 224 224 225 230 235 238 239 243 254 266 271 272 275 287 295 298 293 298 297 291 290 284 284 286 286 276 274 281 278 273 268 274 260
245 235 222 221 225 226 227 221 220 220 222 221 222 224 229 233 239 249 262 273 278 282 283 287 290 293 296 299 295 300 296 295 292 292 280 276 283 288 279 269 263 263 259
244 234 224 220 221 223 224 221 220 220 219 220 223 227 232 235 242 252 267 274 275 274 277 283 291 291 295 292 299 300 298 297 295 300 297 286 288 287 277 270 262 253 251
249 234 225 218 222 223 222 219 217 215 216 216 218 224 229 233 242 252 259 263 267 270 273 277 285 293 299 301 302 307 308 302 295 298 297 289 288 282 276 269 260 252 241
260 235 224 216 220 221 219 216 214 213 211 210 215 222 226 233 242 253 255 262 269 274 281 291 299 303 304 303 310 311 301 301 300 300 298 296 295 283 272 255 250 247 234
256 246 221 213 215 216 216 214 214 210 206 209 212 216 225 238 246 261 268 275 287 287 292 297 304 300 300 306 309 305 296 294 295 298 289 287 289 282 274 266 249 237 224
266 253 221 210 214 211 212 213 211 208 206 207 212 218 222 233 247 258 264 276 273 273 282 290 291 296 303 300 297 297 297 294 290 289 286 277 275 270 271 251 240 223 220
268 246 223 209 207 206 210 210 204 206 206 208 211 217 221 220 231 248 266 277 279 289 302 304 297 295 291 295 298 297 297 295 293 294 296 274 273 260 229 228 224 215 216
238 243 224 205 204 205 206 208 203 202 199 201 205 210 222 234 244 252 272 282 290 300 300 295 297 301 312 313 310 305 302 302 300 308 306 265 254 224 220 219 213 201 201
223 239 218 204 202 202 205 207 205 200 195 198 204 217 232 246 258 268 276 279 295 306 308 316 317 325 324 324 327 325 323 313 304 297 308 254 233 214 208 217 205 197 197